TimeEDT,TemperatureF,Dew PointF,Humidity,Sea Level PressureIn,VisibilityMPH,Wind Direction,Wind SpeedMPH,Gust SpeedMPH,PrecipitationIn,Events,Conditions,WindDirDegrees,DateUTC
12:15 AM,46.4,44.6,93,30.23,10.0,Calm,Calm,-,N/A,,Clear,0,2013-03-10 05:15:00
12:35 AM,46.4,46.4,100,30.22,10.0,Calm,Calm,-,N/A,,Clear,0,2013-03-10 05:35:00
12:55 AM,46.4,44.6,93,30.22,10.0,Calm,Calm,-,N/A,,Clear,0,2013-03-10 05:55:00
1:15 AM,46.4,44.6,93,30.22,8.0,Calm,Calm,-,N/A,,Clear,0,2013-03-10 06:15:00
1:35 AM,46.4,44.6,93,30.21,8.0,Calm,Calm,-,N/A,,Clear,0,2013-03-10 06:35:00
1:55 AM,46.4,44.6,93,30.20,9.0,Calm,Calm,-,N/A,,Clear,0,2013-03-10 06:55:00
3:15 AM,44.6,44.6,100,30.20,10.0,Calm,Calm,-,N/A,,Clear,0,2013-03-10 07:15:00
3:35 AM,44.6,44.6,100,30.19,5.0,Calm,Calm,-,N/A,,Clear,0,2013-03-10 07:35:00
3:55 AM,44.6,42.8,93,30.19,5.0,Calm,Calm,-,N/A,,Clear,0,2013-03-10 07:55:00
4:15 AM,44.6,44.6,100,30.18,4.0,Calm,Calm,-,N/A,,Clear,0,2013-03-10 08:15:00
4:35 AM,41.0,41.0,100,30.18,3.0,Calm,Calm,-,N/A,,Clear,0,2013-03-10 08:35:00
4:55 AM,44.6,44.6,100,30.18,5.0,Calm,Calm,-,N/A,,Clear,0,2013-03-10 08:55:00
5:15 AM,42.8,42.8,100,30.18,7.0,Calm,Calm,-,N/A,,Clear,0,2013-03-10 09:15:00
5:35 AM,44.6,44.6,100,30.18,4.0,Calm,Calm,-,N/A,,Clear,0,2013-03-10 09:35:00
5:55 AM,44.6,44.6,100,30.18,5.0,Calm,Calm,-,N/A,,Clear,0,2013-03-10 09:55:00
6:15 AM,44.6,44.6,100,30.19,3.0,Calm,Calm,-,N/A,,Clear,0,2013-03-10 10:15:00
6:35 AM,46.4,46.4,100,30.19,8.0,Calm,Calm,-,N/A,,Clear,0,2013-03-10 10:35:00
6:50 AM,46.4,46.4,100,30.19,7.0,Calm,Calm,-,N/A,,Clear,0,2013-03-10 10:50:00
6:55 AM,44.6,44.6,100,30.19,3.0,Calm,Calm,-,N/A,,Clear,0,2013-03-10 10:55:00
7:15 AM,42.8,42.8,100,30.19,3.0,Calm,Calm,-,N/A,,Clear,0,2013-03-10 11:15:00
9:50 AM,59.0,53.6,82,30.23,10.0,NNE,3.5,-,N/A,,Clear,20,2013-03-10 13:50:00
10:50 AM,66.2,53.6,64,30.21,10.0,ENE,6.9,-,N/A,,Clear,60,2013-03-10 14:50:00
11:50 AM,69.8,53.6,56,30.19,10.0,East,11.5,23.0,N/A,,Partly Cloudy,100,2013-03-10 15:50:00
12:50 PM,71.6,55.4,57,30.18,10.0,East,11.5,23.0,N/A,,Mostly Cloudy,90,2013-03-10 16:50:00
1:50 PM,73.4,53.6,50,30.16,10.0,East,16.1,-,N/A,,Mostly Cloudy,90,2013-03-10 17:50:00
2:50 PM,73.4,51.8,47,30.15,10.0,ESE,18.4,-,N/A,,Scattered Clouds,120,2013-03-10 18:50:00
4:50 PM,73.4,50.0,44,30.14,10.0,ESE,15.0,-,N/A,,Partly Cloudy,110,2013-03-10 20:50:00
5:50 PM,71.6,51.8,50,30.14,10.0,ESE,10.4,-,N/A,,Partly Cloudy,110,2013-03-10 21:50:00
6:50 PM,68.0,53.6,60,30.14,10.0,East,16.1,-,N/A,,Clear,90,2013-03-10 22:50:00
7:50 PM,64.4,53.6,68,30.15,10.0,East,11.5,-,N/A,,Clear,90,2013-03-10 23:50:00
9:15 PM,60.8,53.6,77,30.16,10.0,Calm,Calm,-,N/A,,Clear,0,2013-03-11 01:15:00
9:35 PM,60.8,53.6,77,30.16,10.0,East,3.5,-,N/A,,Clear,80,2013-03-11 01:35:00
9:55 PM,60.8,53.6,77,30.16,10.0,East,3.5,-,N/A,,Clear,90,2013-03-11 01:55:00
10:15 PM,60.8,53.6,77,30.16,10.0,East,3.5,-,N/A,,Clear,100,2013-03-11 02:15:00
10:35 PM,60.8,53.6,77,30.16,10.0,East,3.5,-,N/A,,Clear,80,2013-03-11 02:35:00
10:55 PM,59.0,55.4,88,30.16,10.0,East,3.5,-,N/A,,Clear,80,2013-03-11 02:55:00
11:15 PM,59.0,53.6,82,30.16,10.0,East,3.5,-,N/A,,Clear,80,2013-03-11 03:15:00
11:35 PM,57.2,53.6,88,30.16,10.0,East,3.5,-,N/A,,Clear,90,2013-03-11 03:35:00
11:55 PM,55.4,53.6,94,30.15,10.0,Calm,Calm,-,N/A,,Clear,0,2013-03-11 03:55:00
12:15 AM,53.6,51.8,94,30.15,10.0,Calm,Calm,-,N/A,,Clear,0,2013-03-11 04:15:00
12:35 AM,53.6,51.8,94,30.15,10.0,Calm,Calm,-,N/A,,Clear,0,2013-03-11 04:35:00
12:55 AM,53.6,51.8,94,30.14,10.0,Calm,Calm,-,N/A,,Clear,0,2013-03-11 04:55:00